Flag for Germany Weather past 2 weeks in Iserlohn, North Rhine-Westphalia, Germany

Now
54 °F

Passing clouds.


Feels Like: 49 °F
Forecast: 50 / 62 °F
Wind: 15 mph from Southwest

Location: Dortmund / Wickede

Current Time: Jul 29, 2015 at 5:47:22 AM

Latest Report: Jul 29, 2015 at 5:20 AM


Visibility: N/A

Pressure: 29.74 "Hg

Humidity: 77%

Dew point: 46 °F

Location of IserlohnLocation

Historic Weather in Iserlohn — Graph

°F

Iserlohn temperature yesterday

Maximum temperature yesterday: 64 °F (at 3:20 PM)
Minimum temperature yesterday: 55 °F (at 5:20 AM)
Average temperature yesterday: 59 °F

Past Weeks' High & Low Weather Summary

 TemperatureHumidityPressure
High86 °F (Jul 17, 1:50 PM)94% (Jul 14, 6:50 AM)30.12 "Hg (Jul 14, 6:50 AM)
Low50 °F (Jul 26, 5:20 AM)27% (Jul 17, 3:20 PM)29.50 "Hg (Jul 25, 7:50 AM)
Average66 °F67%29.89 "Hg
* Reported Jul 13 10:20 PM — Jul 28 10:50 PM, Iserlohn, Weather by CustomWeather, © 2015

Note: Actual official high and low records may vary slightly from our data, if they occured in-between our weather recording intervals... More about our weather records

Advertising

Iserlohn weather history for previous 24 hours

 ConditionsComfort  
Time TempWeatherWind HumidityBarometerVisibility
10:50 PM
Tue, Jul 28
57 °FClear.12 mph55%29.74 "Hg10 mi
10:20 PM57 °FSunny.13 mph59%29.74 "Hg10 mi
9:50 PM55 °FCool.9 mph67%29.74 "HgN/A
9:20 PM59 °FSunny.13 mph59%29.74 "Hg10 mi
8:50 PM59 °FSunny.12 mph63%29.74 "Hg10 mi
8:20 PM61 °FPassing clouds.14 mph55%29.71 "HgN/A
7:20 PM61 °FRefreshingly cool.15 mph59%29.71 "HgN/A
6:50 PM61 °FSunny.16 mph59%29.71 "Hg10 mi
6:20 PM61 °FPartly sunny.16 mph55%29.71 "HgN/A
5:50 PM61 °FSunny.17 mph59%29.71 "Hg10 mi
5:20 PM61 °FBroken clouds.20 mph59%29.71 "HgN/A
4:50 PM63 °FPartly sunny.17 mph56%29.71 "HgN/A
4:20 PM61 °FSunny.24 mph59%29.71 "Hg10 mi
3:50 PM61 °FScattered clouds.26 mph59%29.71 "HgN/A
3:20 PM64 °FScattered clouds.21 mph60%29.71 "HgN/A
2:50 PM61 °FPartly sunny.18 mph68%29.71 "HgN/A
2:20 PM59 °FBroken clouds.18 mph72%29.71 "HgN/A
1:50 PM61 °FScattered showers. Partly sunny.21 mph59%29.71 "HgN/A
1:20 PM61 °FPartly sunny.22 mph59%29.68 "HgN/A
12:50 PM61 °FPartly sunny.16 mph63%29.68 "HgN/A
12:20 PM63 °FPartly sunny.22 mph59%29.68 "HgN/A
11:50 AM59 °FSprinkles. Partly sunny.17 mph63%29.68 "HgN/A
11:20 AM61 °FScattered showers. Partly sunny.20 mph68%29.68 "HgN/A
10:50 AM59 °FScattered showers. Partly sunny.21 mph68%29.68 "HgN/A
10:20 AM59 °FBroken clouds.17 mph72%29.68 "HgN/A
9:50 AM57 °FScattered showers. Broken clouds.15 mph77%29.68 "HgN/A
9:20 AM57 °FPartly sunny.18 mph72%29.68 "HgN/A
8:50 AM57 °FBroken clouds.16 mph72%29.65 "HgN/A
8:20 AM57 °FPartly sunny.18 mph67%29.65 "HgN/A
7:50 AM57 °FScattered clouds.17 mph67%29.65 "HgN/A
7:20 AM55 °FPartly sunny.18 mph72%29.65 "HgN/A
6:50 AM55 °FPartly sunny.17 mph72%29.65 "HgN/A
6:20 AM55 °FPassing clouds.17 mph72%29.62 "HgN/A
5:50 AM55 °FPassing clouds.16 mph72%29.62 "HgN/A
5:20 AM55 °FClear.17 mph67%29.62 "Hg10 mi
Weather by CustomWeather, © 2015

See weather overviewHow to use our weather pages